Probability
0 0 0 0 0 0 0 0 0 0 0 0 0 0 0 0 0 0 0 0 0 0 0 0 0 0 0 0 0 0 0 0 0 0 0 0 0 0 0 0 0 0 0 0
0 0 0 0 0 0 0 0 0 0 0 0 0 0 0 0 0 0 0 0 0 0 0 0 0 0 0 0 0 0 0 0 0 0 0 0 0 0 0 0 0 0 0 0
0 0 0 0 0 0 0 0 0 0 0 0 0 0 0 0 0 0 0 0 0 0 0 0 0 0 0 0 0 0 0 0 0 0 0 0 0 0 0 0 0 0 0 0
0 0 0 0 0 0 0 0 0 0 0 0 0 0 0 0 0 0 0 0 0 0 0 0 0 0 0 0 0 0 0 0 0 0 0 0 0 0 0 0 0 0 0 0
0 0 0 0 0 0 0 0 0 0 0 0 0 0 0 0 0 0 0 0 0 0 0 0 0 0 0 0 0 0 0 0 0 0 0 0 0 0 0 0 0 0 0 0
0 0 0 0 0 0 0 0 0 0 0 0 0 0 0 0 0 0 0 0 0 0 0 0 0 0 0 0 0 0 0 0 0 0 0 0 0 0 0 0 0 0 0 0
0 0 0 0 0 0 0 0 0 0 0 0 0 0 0 0 0 0 0 0 0 0 0 0 0 0 0 0 0 0 0 0 0 0 0 0 0 0 0 0 0 0 0 0
0 0 0 0 0 0 0 0 0 0 0 0 0 0 0 0 0 0 0 0 0 0 0 0 0 0 0 0 0 0 0 0 0 0 0 0 0 0 0 0 0 0 0 0
0 0 0 0 0 0 0 0 0 0 0 0 0 0 0 0 0 0 0 0 0 0 0 0 0 0 0 0 0 0 0 0 0 0 0 0 0 0 0 0 0 0 0 0
0 0 0 0 0 0 0 0 0 0 0 0 0 0 0 0 0 0 0 0 0 0 0 0 0 0 0 0 0 0 0 0 0 0 0 0 0 0 0 0 0 0 0 0
0 0 0 0 0 0 0 0 0 0 0 0 0 0 0 0 0 0 0 0 0 0 0 0 0 0 0 0 0 0 0 0 0 0 0 0 0 0 0 0 0 0 0 0
0 0 0 0 0 0 0 0 0 0 0 0 0 0 0 0 0 0 0 0 0 0 0 0 0 0 0 0 0 0 0 0 0 0 0 0 0 0 0 0 0 0 0 0
0 0 0 0 0 0 0 0 0 0 0 0 0 0 0 0 0 0 0 0 0 0 0 0 0 0 0 0 0 0 0 0 0 0 0 0 0 0 0 0 0 0 0 0
0 0 0 0 0 0 0 0 0 0 0 0 0 0 0 0 0 0 0 0 0 0 0 0 0 0 0 0 0 0 0 0 0 0 0 0 0 0 0 0 0 0 0 0
0 0 0 0 0 0 0 0 0 0 0 0 0 0 0 0 0 0 0 0 0 0 0 0 0 0 0 0 0 0 0 0 0 0 0 0 0 0 0 0 0 0 0 0
0 0 0 0 0 0 0 0 0 0 0 0 0 0 0 0 0 0 0 0 0 0 0 0 0 0 0 0 0 0 0 0 0 0 1 1 0 0 0 0 0 0 0 0
0 0 0 0 0 0 0 0 0 0 0 0 0 0 0 0 0 0 0 0 0 0 0 0 0 0 0 0 0 0 0 0 0 1 2 2 1 0 0 0 0 0 0 0
0 0 0 0 0 0 0 0 0 0 0 0 0 0 0 0 0 0 0 0 0 0 0 0 0 0 0 0 0 0 0 0 0 1 2 2 1 0 0 0 0 0 0 0
0 0 0 0 0 0 0 0 0 0 0 0 0 0 0 0 0 0 0 0 0 0 0 0 0 0 0 0 0 0 0 0 0 0 1 1 0 0 0 0 0 0 0 0
0 0 0 0 0 0 0 0 0 0 0 0 0 0 0 0 0 0 0 0 0 0 0 0 0 0 0 0 0 0 0 0 0 0 0 0 0 0 0 0 0 0 0 0
0 0 0 0 0 0 0 0 0 0 0 0 0 0 0 0 0 0 0 0 0 0 0 0 0 0 0 0 0 0 0 0 0 0 0 0 0 0 0 0 0 0 0 0
0 0 0 0 0 0 0 0 0 0 0 0 0 0 0 0 0 0 0 0 0 0 0 0 0 0 0 0 0 0 0 0 0 0 0 0 0 0 0 0 0 0 0 0
0 0 0 0 0 0 0 0 0 0 0 0 0 0 0 0 0 0 0 0 0 0 0 0 0 0 0 0 0 0 0 0 1 0 0 0 0 0 0 0 0 0 0 0
0 0 0 0 0 0 0 0 0 0 0 0 0 0 0 0 0 0 0 0 0 0 0 0 0 0 0 0 0 0 0 0 0 0 0 0 0 0 0 0 0 0 0 0
0 0 0 0 0 0 0 0 0 0 0 0 0 0 0 0 0 0 0 0 0 0 0 0 0 0 0 0 0 0 0 0 0 0 0 0 0 0 0 0 0 0 0 0
0 0 0 0 0 0 0 0 0 0 0 0 0 0 0 0 0 0 0 0 0 0 0 0 0 0 0 0 0 0 0 0 0 0 0 0 0 0 0 0 0 0 0 0
0 0 0 0 0 0 0 0 0 0 0 0 0 0 0 0 0 0 0 0 0 0 0 0 0 0 0 0 0 0 0 0 0 0 0 0 0 0 0 0 0 0 0 0
Wind_Speed
5 4 2 4 5 4 5 7 7 7 7 8 6 4 3 2 1 1 2 2 1 1 1 2 2 1 1 1 2 2 2 3 3 3 3 3 3 3 3 4 4 4 3 3
3 2 2 4 6 6 6 5 6 5 7 5 3 1 1 2 2 2 3 3 2 2 2 2 2 2 2 2 2 2 3 4 3 2 3 3 3 3 3 3 3 3 4 4
3 3 2 5 6 6 4 4 5 6 6 2 2 2 3 3 3 4 4 3 3 3 3 3 3 3 3 3 2 2 3 3 3 3 3 3 3 3 3 3 3 3 4 4
1 1 5 7 2 3 4 3 4 4 3 3 4 3 2 1 2 3 3 3 3 3 3 3 3 3 2 2 2 2 3 3 3 3 4 3 3 4 4 3 3 4 4 4
3 2 6 7 2 2 3 3 2 3 2 2 1 2 3 2 2 3 3 3 3 3 3 3 3 2 1 2 2 2 3 4 4 4 4 4 4 5 4 3 3 3 3 4
3 3 6 6 2 1 2 3 3 2 2 1 2 1 5 4 3 3 2 2 2 2 2 2 3 1 1 2 2 3 4 5 4 4 5 5 6 5 4 4 4 3 3 4
4 4 8 6 4 1 3 6 3 2 2 2 3 5 4 3 3 2 2 2 2 1 2 3 2 1 2 2 4 5 4 4 4 4 5 6 5 4 3 4 3 4 4 4
4 4 8 3 1 3 5 3 2 2 2 2 3 3 3 3 3 3 2 2 2 1 2 3 2 1 2 4 5 4 3 3 4 4 4 4 4 4 3 4 4 4 3 4
7 7 4 2 3 3 2 2 3 2 2 2 3 3 4 3 3 3 3 3 2 2 3 3 3 2 4 5 4 3 3 4 4 4 4 4 4 5 3 4 4 4 4 4
3 5 4 4 3 2 2 2 3 2 2 2 3 3 3 4 4 4 3 3 3 3 4 5 4 4 5 4 3 3 4 4 4 4 3 3 3 4 4 4 4 4 5 5
4 5 4 3 3 3 3 2 2 3 2 3 3 4 4 4 4 4 4 3 3 3 4 6 5 5 5 3 3 3 4 4 4 4 4 4 4 4 6 6 7 6 6 6
7 7 5 6 4 2 2 3 3 3 3 4 3 4 4 5 5 4 4 4 4 4 5 6 5 5 5 3 3 3 4 4 3 3 3 3 3 4 6 7 9 10 9 8
5 3 3 4 3 3 3 4 3 3 4 4 4 4 4 5 5 5 5 5 5 5 6 6 5 6 5 4 3 4 4 4 3 3 3 3 3 4 4 4 6 8 9 9
4 1 3 4 4 3 3 3 3 4 4 4 4 4 4 4 5 5 6 6 5 5 5 5 5 6 5 4 4 5 5 5 5 4 4 4 4 4 4 4 4 4 6 8
4 4 4 4 3 3 3 2 3 4 4 4 4 4 5 5 5 6 5 5 4 4 5 5 5 6 5 4 4 5 4 4 4 3 3 4 4 4 4 5 4 4 3 4
3 2 2 3 4 4 3 3 4 4 4 5 5 5 5 5 5 5 5 4 3 4 5 5 6 6 5 4 4 4 4 6 5 3 3 3 3 4 4 4 4 4 4 4
2 3 3 4 5 5 5 5 4 4 4 5 6 6 5 4 4 4 4 4 4 4 5 5 6 6 5 4 4 4 3 4 6 4 3 3 4 4 4 4 4 4 5 4
5 5 5 4 4 5 5 4 4 4 4 5 5 4 4 4 4 5 4 3 3 4 4 4 5 6 5 4 4 3 3 3 3 4 3 3 4 4 4 4 4 5 4 4
3 3 3 3 4 3 3 3 3 3 3 3 3 4 4 4 4 4 4 3 3 5 6 5 8 6 5 5 5 3 3 3 3 3 3 4 4 3 3 4 4 4 4 4
2 2 2 3 3 2 2 3 2 2 3 3 3 3 3 4 4 4 3 3 3 4 5 6 5 4 4 5 5 3 3 3 4 4 3 3 4 4 4 4 4 4 4 4
2 2 2 2 2 2 2 2 2 2 3 3 3 3 3 4 4 4 3 4 5 5 5 6 4 4 4 4 5 3 3 3 3 4 4 4 4 4 4 4 4 4 4 4
2 2 2 2 2 2 2 2 2 2 3 3 3 3 3 4 4 4 4 4 5 7 5 3 3 5 6 5 3 2 3 3 3 3 3 4 4 4 4 4 4 4 4 3
2 2 2 2 2 2 3 2 2 2 3 3 3 3 3 3 3 3 5 4 4 6 5 3 6 8 8 4 2 2 3 3 3 3 3 4 4 3 3 3 3 3 3 3
2 2 2 2 1 1 2 3 3 2 3 3 3 3 3 3 3 3 3 6 7 7 4 6 8 9 8 3 3 3 3 3 3 3 3 3 3 3 3 3 3 2 2 3
2 2 2 2 2 2 2 2 3 3 3 3 4 4 3 2 3 4 4 4 7 6 4 6 8 8 5 3 3 3 3 3 3 3 3 3 3 3 3 2 2 2 2 2
2 2 2 2 2 2 2 1 2 2 2 3 3 3 3 3 3 3 3 4 5 6 4 3 4 4 3 3 3 3 3 3 4 3 3 3 3 3 3 3 3 2 2 2
2 1 1 2 2 2 2 2 2 3 3 3 4 4 3 3 3 3 3 3 4 4 3 3 3 3 3 3 3 3 3 3 2 2 2 2 3 3 3 3 3 3 2 2
Wind_Direction
237 242 222 231 233 204 193 195 202 235 238 257 260 246 253 268 296 337 316 314 294 280 287 306 305 262 225 223 218 198 186 196 211 211 203 198 200 200 205 203 203 200 201 205
280 280 263 258 246 221 217 210 223 246 260 260 268 225 253 248 229 254 263 265 270 281 288 287 278 253 239 234 225 199 198 213 213 199 196 205 211 203 203 210 208 195 203 206
272 314 354 273 239 210 212 210 196 224 249 276 296 261 239 233 234 246 255 257 250 256 258 258 259 242 227 230 217 202 210 218 212 205 208 217 215 205 211 215 208 207 212 212
238 27 236 243 255 201 203 235 228 238 256 241 245 253 256 228 230 264 271 271 268 266 271 272 268 260 240 221 201 214 223 222 219 211 217 219 212 217 224 218 213 214 216 216
148 219 274 290 275 179 184 261 253 225 270 301 319 17 329 306 266 248 255 267 266 260 260 274 278 267 233 222 214 221 237 231 223 213 214 214 220 226 222 214 220 223 218 211
143 189 238 251 286 290 119 268 273 196 227 270 81 1 279 296 298 296 306 310 311 315 306 293 290 279 208 233 236 242 244 241 229 213 212 216 224 226 220 213 218 221 233 222
174 218 258 265 298 66 160 244 275 228 219 197 202 225 255 282 290 292 299 306 321 333 307 285 288 279 242 245 247 250 254 253 239 221 219 221 222 219 216 213 212 219 231 239
163 203 253 294 84 170 221 261 270 253 250 240 261 283 293 289 293 305 310 306 302 289 289 291 286 255 258 260 261 261 257 256 253 239 232 226 214 218 212 206 212 224 231 246
189 212 247 262 214 241 225 246 266 249 266 257 276 285 294 295 294 296 288 286 289 280 291 297 287 259 257 269 277 274 268 261 258 252 238 224 212 212 210 207 212 225 225 236
238 258 263 270 271 288 267 258 275 273 280 270 265 273 283 289 293 296 294 283 284 289 292 293 290 276 260 268 270 262 264 265 260 254 252 239 222 212 208 211 215 222 227 236
249 270 292 279 259 274 299 316 316 304 285 262 259 276 276 280 284 284 287 283 270 264 271 279 285 281 276 271 264 262 263 265 267 257 243 239 232 223 218 219 214 217 224 222
229 230 220 255 264 261 271 285 285 288 292 281 258 265 275 277 276 276 279 280 280 275 275 281 286 283 283 270 251 253 267 267 260 258 249 240 242 260 245 237 238 234 232 229
234 245 231 260 276 268 263 275 280 276 276 286 287 272 266 270 272 273 276 276 271 268 269 275 280 283 283 271 252 246 252 259 259 256 251 244 238 239 261 268 252 243 238 237
234 224 270 267 269 277 280 290 295 298 294 286 284 287 284 279 277 274 270 269 271 273 274 273 275 279 282 272 258 258 260 260 258 253 248 243 241 240 239 241 253 255 245 241
251 227 236 264 273 280 287 292 300 298 299 300 297 289 283 277 275 272 272 273 279 282 283 281 278 281 283 269 259 261 262 264 260 257 251 247 246 243 243 241 244 252 256 247
276 273 249 253 261 271 277 273 272 280 290 295 297 294 290 285 283 283 283 277 272 280 285 285 282 285 287 272 265 264 263 268 272 267 258 251 247 244 244 243 244 243 243 240
225 256 258 264 264 267 267 265 263 273 287 290 292 298 303 305 305 300 293 285 274 275 282 284 287 292 289 274 263 266 268 268 271 272 259 253 249 245 243 241 242 243 243 235
228 236 240 243 251 265 275 281 282 284 282 283 295 305 306 301 299 301 299 302 308 310 305 297 295 302 301 291 272 263 262 263 261 259 260 256 256 251 245 243 243 245 250 241
263 257 267 271 263 253 261 270 277 282 290 299 300 294 293 296 299 304 310 312 311 306 303 305 309 312 306 299 297 272 264 266 272 270 264 263 262 256 249 246 248 249 243 239
298 288 291 297 297 280 276 283 286 294 300 306 306 307 311 311 312 311 311 303 286 281 291 302 308 303 300 299 302 282 268 265 268 271 270 265 261 259 254 249 246 247 243 238
299 299 299 303 306 306 292 286 286 294 304 306 300 297 298 307 315 318 317 307 303 303 303 308 311 304 309 314 314 302 287 279 275 272 268 266 267 267 262 256 251 246 245 243
298 291 291 300 307 311 312 309 298 298 307 308 306 309 308 308 312 315 304 286 295 308 313 307 305 311 317 320 311 311 308 302 294 287 280 274 267 267 265 260 253 251 251 249
288 286 291 287 280 292 318 325 318 316 312 310 306 300 293 291 293 300 304 301 300 310 316 303 315 324 326 325 315 312 308 304 303 297 292 289 282 275 271 265 261 258 256 256
293 293 296 300 309 318 315 313 318 312 304 303 299 294 293 301 303 289 282 303 313 314 311 311 321 329 335 336 328 321 312 308 305 304 303 303 306 303 295 287 282 276 270 271
279 288 298 308 302 286 284 301 319 318 317 315 312 307 299 279 279 291 298 300 304 312 309 313 323 330 330 320 317 312 309 310 312 314 315 316 315 309 307 304 299 293 291 285
265 267 269 263 263 274 280 290 296 298 305 311 309 305 303 300 295 297 304 307 310 312 311 309 313 319 314 305 305 307 307 313 316 318 319 320 321 319 316 315 314 306 301 297
279 283 296 309 302 286 278 276 277 281 281 282 292 297 301 307 309 309 309 311 313 312 312 312 313 316 318 320 320 318 318 320 320 318 319 322 320 316 318 316 314 313 310 308